Flag for Maldives Weather past 2 weeks in Male, Maldives

Now
82 °F

Passing clouds.


Feels Like: 91 °F
Forecast: 81 / 86 °F
Wind: 14 mph from West

Location: Male Airport

Current Time: Sep 17, 2014 at 3:21:59 AM

Latest Report: Sep 17, 2014 at 1:00 AM


Visibility: N/A

Pressure: 29.80 "Hg

Humidity: 84%

Dew point: 77 °F

Location of MaleLocation

Historic Weather in Male — Graph

°F

Male temperature yesterday

Maximum temperature yesterday: 86 °F (at 11:00 AM)
Minimum temperature yesterday: 79 °F (at 4:00 PM)
Average temperature yesterday: 82 °F

Past Weeks' High & Low Weather Summary

 TemperatureHumidityPressure
High90 °F (Sep 2, 11:00 AM)94% (Sep 3, 7:00 AM)29.98 "Hg (Sep 3, 7:00 AM)
Low77 °F (Sep 3, 10:00 AM)63% (Sep 2, 11:00 AM)29.77 "Hg (Sep 2, 2:00 AM)
Average83 °F79%29.88 "Hg
* Reported Sep 2 1:00 AM — Sep 17 1:00 AM, Male, Weather by CustomWeather, © 2014

Note: Actual official high and low records may vary slightly from our data, if they occured in-between our weather recording intervals... More about our weather records

Advertising

Male weather history for previous 24 hours

 ConditionsComfort  
Time TempWeatherWind HumidityBarometerVisibility
1:00 AM
Sep 17
82 °FPassing clouds.14 mph84%29.80 "HgN/A
12:00 AM81 °FPassing clouds.13 mph84%29.83 "HgN/A
11:00 PM
Sep 16
81 °FPassing clouds.13 mph79%29.86 "HgN/A
10:00 PM81 °FPassing clouds.17 mph84%29.86 "HgN/A
9:00 PM82 °FPassing clouds.18 mph79%29.86 "HgN/A
8:00 PM81 °FLight rain. Mostly cloudy.13 mph89%29.86 "Hg6 mi
7:00 PM79 °FLight rain. Mostly cloudy.17 mph89%29.83 "Hg6 mi
6:00 PM81 °FSprinkles. Broken clouds.10 mph89%29.80 "Hg5 mi
5:00 PM82 °FPartly sunny.10 mph79%29.80 "HgN/A
4:00 PM79 °FSprinkles. Partly sunny.8 mph94%29.80 "Hg6 mi
1:00 PM84 °FPartly sunny.7 mph74%29.83 "HgN/A
12:00 PM82 °FBroken clouds.12 mph79%29.86 "HgN/A
11:00 AM86 °FScattered showers. Broken clouds.3 mph75%29.86 "HgN/A
10:00 AM82 °FBroken clouds.1 mph84%29.89 "HgN/A
9:00 AM82 °FScattered clouds.6 mph79%29.89 "HgN/A
8:00 AM84 °FScattered clouds.5 mph74%29.86 "HgN/A
7:00 AM81 °FScattered clouds.6 mph79%29.86 "HgN/A
6:00 AM82 °FPartly sunny.8 mph79%29.83 "HgN/A
5:00 AM81 °FPassing clouds.7 mph89%29.80 "HgN/A
4:00 AM82 °FPassing clouds.9 mph79%29.80 "HgN/A
3:00 AM82 °FPassing clouds.9 mph84%29.80 "HgN/A
Weather by CustomWeather, © 2014

See weather overviewHow to use our weather pages